Location: Pilipovskiye Korichintsy
(49.1833°N, 27.4667°E)
Time: 00:02:04
(UTC+00:00)

Lacrosse 5 - Pass Details

Date: 26 October 2020
Orbit: 714 x 725 km, 57.0° (Epoch: 30 November)

Event Time Altitude Azimuth Distance (km) Brightness Sun altitude
Rises 19:11:45 0° 303° (WNW) 3,121 6.0 -40.7°
Reaches altitude 10° 19:14:08 10° 306° (NW) 2,200 5.0 -41.0°
Enters shadow 19:14:49 14° 307° (NW) 1,939 4.7 -41.1°
